User: anonymous   Login
Location: Fort Wayne
(41.1310°N, 85.1290°W)
Time: 16:46:59
(UTC-05:00)
Language:

BREEZE-M DEB (TANK) - Orbit

View from above orbital plane
View from above orbital plane
View from above satellite
View from above satellite

Ground track
Ground track

The orbit data is extracted from the following two-line orbital elements,

1 27821U 03024B   16340.90968165 +.00004035 +00000-0 +40361-3 0  9996
2 27821 049.5989 088.1916 4947927 242.3316 059.4948 05.74419699269338
Epoch (UTC): 05 December 2016 21:49:56
Eccentricity: 0.4947927
inclination: 49.5989°
perigee height: 275 km
apogee height: 13308 km
right ascension of ascending node: 88.1916°
argument of perigee: 242.3316°
revolutions per day: 5.74419699
mean anomaly at epoch: 59.4948°
orbit number at epoch: 26933

The dashed part of the orbit path shows where the satellite is in the earth's shadow,  

DLR